Weather History for Melbourne Airport, VC

Change the Weather History Date:

Sunday, June 16, 2013

  Actual Average Record
Temperature  
Mean Temperature 48 °F -  
Max Temperature 55 °F 54 °F 62 °F (2008)
Min Temperature 42 °F 41 °F 39 °F (2007)
Degree Days  
Heating Degree Days 16    
Moisture  
Dew Point 44 °F    
Average Humidity 84    
Maximum Humidity 100    
Minimum Humidity 47    
Precipitation  
Precipitation 0.01 in 0.05 in - ()
Sea Level Pressure  
Sea Level Pressure 30.11 in    
Wind  
Wind Speed 7 mph ()    
Max Wind Speed 17 mph    
Max Gust Speed -    
Visibility 7.4 miles    
Events Rain    
Averages and records for this station are not official NWS values.
T = Trace of Precipitation, MM = Missing Value Source: Averaged Metar Reports

Daily Weather History Graph

Daily Weather History Graph

Search for Another Location

Airport:

Trip Planner

Search our weather history database for the weather conditions in past years. The results will help you decide how hot, cold, wet, or windy it might be!

Date:

Astronomy

Jun. 16, 2013 Rise Set
Actual Time 7:34 AM AEST 5:08 PM AEST
Civil Twilight 7:04 AM AEST 5:37 PM AEST
Nautical Twilight 6:32 AM AEST 6:10 PM AEST
Astronomical Twilight 6:00 AM AEST 6:42 PM AEST
Moon 11:53 AM AEST (6/16) No Moon Set
Length of Visible Light 10h 32m
Length of Day
9h 34m
Waxing Crescent, 43% of the Moon is Illuminated
Jun 16
Waxing Crescent
Jun 17
First Quarter
Jun 23
Full
Jun 30
Last Quarter
Jul 8
New

Hourly Weather History & Observations

Time (AEST) Temp. Windchill Dew Point Humidity Pressure Visibility Wind Dir Wind Speed Gust Speed Precip Events Conditions
12:00 AM 46 °F - 45 °F 96% 30.19 in 11 mi SSW 4.6 mph - - Rain Heavy Rain Showers
12:00 AM 46.4 °F 44.3 °F 44.6 °F 93% 30.18 in 6.2 mi SSW 4.6 mph - N/A Rain Light Rain Showers
12:30 AM 46.4 °F 44.3 °F 44.6 °F 93% 30.15 in 6.2 mi SW 4.6 mph - N/A Rain Light Rain Showers
1:00 AM 46 °F - 45 °F 96% 30.18 in - SW 5.8 mph - -  
1:00 AM 46.4 °F 43.5 °F 44.6 °F 93% 30.15 in 6.2 mi SW 5.8 mph - N/A Rain Light Rain Showers
1:30 AM 46.4 °F 43.5 °F 44.6 °F 93% 30.15 in 6.2 mi SW 5.8 mph - N/A   Mostly Cloudy
2:00 AM 46.4 °F 43.5 °F 44.6 °F 93% 30.15 in 6.2 mi SSW 5.8 mph - N/A   Mostly Cloudy
2:30 AM 46.4 °F 44.3 °F 44.6 °F 93% 30.15 in 6.2 mi SSW 4.6 mph - N/A   Mostly Cloudy
3:00 AM 45 °F - 44 °F 97% 30.18 in 11 mi SW 5.8 mph - -   Haze
3:00 AM 44.6 °F 41.4 °F 44.6 °F 100% 30.15 in 6.2 mi SSW 5.8 mph - N/A   Scattered Clouds
3:30 AM 46.4 °F 43.5 °F 44.6 °F 93% 30.15 in 6.2 mi SW 5.8 mph - N/A   Mostly Cloudy
4:00 AM 46 °F - 45 °F 96% 30.17 in - WSW 5.8 mph - -  
4:00 AM 46.4 °F 43.5 °F 44.6 °F 93% 30.15 in 6.2 mi WSW 5.8 mph - N/A   Mostly Cloudy
4:30 AM 46.4 °F 43.5 °F 44.6 °F 93% 30.15 in 6.2 mi SW 5.8 mph - N/A   Mostly Cloudy
5:00 AM 46.4 °F 43.5 °F 46.4 °F 100% 30.15 in 6.2 mi WSW 5.8 mph - N/A   Mostly Cloudy
5:30 AM 46.4 °F 43.5 °F 46.4 °F 100% 30.15 in 6.2 mi SSW 5.8 mph - N/A Rain Light Rain Showers
6:00 AM 46 °F - 45 °F 96% 30.16 in 12 mi SW 5.8 mph - -   Mostly Cloudy
6:00 AM 46.4 °F 43.5 °F 44.6 °F 93% 30.15 in 6.2 mi SW 5.8 mph - N/A   Mostly Cloudy
6:30 AM 46.4 °F 42.9 °F 44.6 °F 93% 30.15 in 6.2 mi SW 6.9 mph - N/A   Mostly Cloudy
7:00 AM 46 °F - 45 °F 94% 30.17 in - SW 5.8 mph - -  
7:00 AM 46.4 °F 43.5 °F 44.6 °F 93% 30.15 in 6.2 mi SW 5.8 mph - N/A   Mostly Cloudy
7:30 AM 44.6 °F 42.2 °F 42.8 °F 93% 30.15 in 6.2 mi WSW 4.6 mph - N/A   Partly Cloudy
8:00 AM 42.8 °F 39.3 °F 42.8 °F 100% 30.15 in 6.2 mi WSW 5.8 mph - N/A   Partly Cloudy
8:30 AM 44.6 °F 41.4 °F 44.6 °F 100% 30.15 in 6.2 mi SW 5.8 mph - N/A   Partly Cloudy
9:00 AM 47 °F - 46 °F 94% 30.18 in 16 mi SW 6.9 mph - -   Haze
9:00 AM 48.2 °F - 46.4 °F 93% 30.15 in 6.2 mi SW 6.9 mph - N/A   Scattered Clouds
9:30 AM 50.0 °F - 46.4 °F 87% 30.15 in 6.2 mi SSW 6.9 mph - N/A   Mostly Cloudy
10:00 AM 50 °F - 46 °F 79% 30.18 in - South 8.1 mph - -  
10:00 AM 50.0 °F - 46.4 °F 87% 30.15 in 6.2 mi South 8.1 mph - N/A   Scattered Clouds
10:30 AM 51.8 °F - 44.6 °F 76% 30.15 in 6.2 mi South 8.1 mph - N/A   Partly Cloudy
11:00 AM 51.8 °F - 42.8 °F 71% 30.15 in 6.2 mi South 9.2 mph - N/A   Partly Cloudy
11:30 AM 53.6 °F - 42.8 °F 67% 30.12 in 6.2 mi SSE 12.7 mph - N/A   Partly Cloudy
12:00 PM 54 °F - 41 °F 50% 30.14 in 19 mi SSE 15.0 mph - -   Partly Cloudy
12:00 PM 53.6 °F - 41.0 °F 62% 30.12 in 6.2 mi SSE 15.0 mph - N/A   Scattered Clouds
12:30 PM 53.6 °F - 41.0 °F 62% 30.12 in 6.2 mi SSE 13.8 mph - N/A   Scattered Clouds
1:00 PM 54 °F - 40 °F 47% 30.12 in - South 12.7 mph - -  
1:00 PM 53.6 °F - 39.2 °F 58% 30.09 in 6.2 mi South 12.7 mph - N/A   Scattered Clouds
1:30 PM 55.4 °F - 41.0 °F 58% 30.09 in 6.2 mi South 15.0 mph - N/A   Scattered Clouds
2:00 PM 53.6 °F - 41.0 °F 62% 30.06 in 6.2 mi South 17.3 mph - N/A   Mostly Cloudy
2:30 PM 51.8 °F - 41.0 °F 67% 30.06 in 6.2 mi South 12.7 mph - N/A   Mostly Cloudy
3:00 PM 53 °F - 42 °F 58% 30.09 in 19 mi South 10.4 mph - -   Mostly Cloudy
3:00 PM 51.8 °F - 42.8 °F 71% 30.06 in 6.2 mi South 10.4 mph - N/A   Mostly Cloudy
3:30 PM 50.0 °F - 44.6 °F 82% 30.06 in 6.2 mi SSE 13.8 mph - N/A   Mostly Cloudy
4:00 PM 51 °F - 44 °F 71% 30.09 in - South 8.1 mph - -  
4:00 PM 51.8 °F - 44.6 °F 76% 30.06 in 6.2 mi South 8.1 mph - N/A   Mostly Cloudy
4:30 PM 50.0 °F - 42.8 °F 76% 30.06 in 6.2 mi South 9.2 mph - N/A   Mostly Cloudy
5:00 PM 48.2 °F - 42.8 °F 82% 30.06 in 6.2 mi South 6.9 mph - N/A   Scattered Clouds
5:30 PM 48.2 °F - 42.8 °F 82% 30.06 in 6.2 mi South 6.9 mph - N/A   Scattered Clouds
6:00 PM 47 °F - 43 °F 81% 30.09 in 19 mi South 5.8 mph - -   Partly Cloudy
6:00 PM 48.2 °F - 42.8 °F 82% 30.06 in 6.2 mi South 5.8 mph - N/A   Mostly Cloudy
6:30 PM 48.2 °F - 42.8 °F 82% 30.06 in 6.2 mi South 6.9 mph - N/A   Mostly Cloudy
7:00 PM 49 °F - 43 °F 74% 30.09 in - South 9.2 mph - -  
7:00 PM 50.0 °F - 42.8 °F 76% 30.06 in 6.2 mi South 9.2 mph - N/A   Mostly Cloudy
7:30 PM 48.2 °F - 42.8 °F 82% 30.06 in 6.2 mi South 5.8 mph - N/A   Mostly Cloudy
8:00 PM 48.2 °F - 44.6 °F 87% 30.06 in 6.2 mi South 8.1 mph - N/A   Mostly Cloudy
8:30 PM 46.4 °F 43.5 °F 44.6 °F 93% 30.06 in 6.2 mi South 5.8 mph - N/A Rain Light Rain Showers
9:00 PM 47 °F - 45 °F 90% 30.08 in 9 mi SSE 10.4 mph - - Rain Light Rain Showers
9:00 PM 48.2 °F - 44.6 °F 87% 30.06 in 6.2 mi SSE 10.4 mph - N/A Rain Light Rain Showers
9:30 PM 46.4 °F 43.5 °F 44.6 °F 93% 30.06 in 6.2 mi South 5.8 mph - N/A   Scattered Clouds
10:00 PM 45 °F - 43 °F 91% 30.08 in - SSW 4.6 mph - -  
10:00 PM 44.6 °F 42.2 °F 42.8 °F 93% 30.06 in 6.2 mi SSW 4.6 mph - N/A   Mostly Cloudy
10:30 PM 44.6 °F 42.2 °F 42.8 °F 93% 30.04 in 6.2 mi SW 4.6 mph - N/A   Scattered Clouds
11:00 PM 44.6 °F 42.2 °F 42.8 °F 93% 30.04 in 6.2 mi SW 4.6 mph - N/A   Scattered Clouds
11:30 PM 44.6 °F 41.4 °F 42.8 °F 93% 30.04 in 6.2 mi West 5.8 mph - N/A   Mostly Cloudy